This is the latest recevied weather packets stored in our database for station/object KO6SRA-13. If no packets are shown the sender has not sent any weather packets the latest 10 day(s).
| Time | Temp. | Humidity | Pressure | Rain* | Wind** | Luminosity | Snow |
|---|---|---|---|---|---|---|---|
| 1787620912 | 18.89° C | 78% | 1018 hPa | 0 mm | - | 39 W/m² | - |
| 1787620607 | 19.44° C | 76% | 1018.2 hPa | 0 mm | - | 67 W/m² | - |
| 1787620303 | 19.44° C | 76% | 1018.2 hPa | 0 mm | - | 160 W/m² | - |
| 1787619998 | 19.44° C | 76% | 1018.1 hPa | 0 mm | - | 183 W/m² | - |
| 1787619693 | 19.44° C | 77% | 1018.2 hPa | 0 mm | - | 191 W/m² | - |
| 1787619388 | 20° C | 76% | 1018.1 hPa | 0 mm | - | 196 W/m² | - |
| 1787619087 | 19.44° C | 76% | 1018 hPa | 0 mm | - | 223 W/m² | - |
| 1787618782 | 20° C | 74% | 1018.1 hPa | 0 mm | - | 203 W/m² | - |
| 1787618480 | 20° C | 73% | 1018.2 hPa | 0 mm | - | 245 W/m² | - |
| 1787618176 | 20° C | 75% | 1018 hPa | 0 mm | - | 272 W/m² | - |
| 1787617871 | 20° C | 73% | 1018 hPa | 0 mm | - | 296 W/m² | - |
| 1787617566 | 20.56° C | 71% | 1017.9 hPa | 0 mm | - | 321 W/m² | - |
| 1787617266 | 20° C | 72% | 1017.8 hPa | 0 mm | - | 307 W/m² | - |
| 1787616972 | 21.11° C | 70% | 1017.9 hPa | 0 mm | - | 316 W/m² | - |
| 1787616661 | 20.56° C | 71% | 1018 hPa | 0 mm | - | 329 W/m² | - |
| 1787616359 | 20.56° C | 71% | 1017.9 hPa | 0 mm | - | 302 W/m² | - |
| 1787616057 | 21.11° C | 69% | 1017.8 hPa | 0 mm | - | 364 W/m² | - |
| 1787615752 | 20.56° C | 71% | 1017.9 hPa | 0 mm | - | 363 W/m² | - |
| 1787615452 | 20.56° C | 71% | 1018.1 hPa | 0 mm | - | 396 W/m² | - |
| 1787615149 | 20.56° C | 69% | 1018 hPa | 0 mm | - | 414 W/m² | - |
| 1787614844 | 20.56° C | 71% | 1018 hPa | 0 mm | - | 428 W/m² | - |
| 1787614540 | 21.11° C | 70% | 1017.9 hPa | 0 mm | - | 421 W/m² | - |
| 1787614238 | 21.11° C | 69% | 1018 hPa | 0 mm | - | 442 W/m² | - |
| 1787613933 | 21.67° C | 67% | 1018 hPa | 0 mm | - | 465 W/m² | - |
| 1787613629 | 21.11° C | 68% | 1018 hPa | 0 mm | - | 473 W/m² | - |
* Rain latest hour (hover to see other rain measurements)
** Current wind speed in m/s (hover to see current wind gust speed)